| time (UTC) | temp F | wind direction | speed MPH | gust MPH | rain 1hr in | rain 24hr in | rain mn in | humidity % | barometer mb |
| 20260504042826 | 60 | 265 | 6.0 | 11.0 | 0.00 | 0.00 | 0.00 | 80 | 1015.5 |
| 20260504041806 | 60 | 229 | 6.0 | 13.0 | 0.00 | 0.00 | 0.00 | 81 | 1015.4 |
| 20260504040831 | 60 | 235 | 7.0 | 13.0 | 0.00 | 0.00 | 0.00 | 82 | 1015.1 |
| 20260504035809 | 60 | 300 | 7.0 | 12.0 | 0.00 | 0.00 | 0.00 | 83 | 1015.1 |
| 20260504034752 | 60 | 262 | 8.0 | 13.0 | 0.00 | 0.00 | 0.00 | 83 | 1014.8 |
| 20260504033753 | 60 | 265 | 8.0 | 13.0 | 0.00 | 0.00 | 0.00 | 83 | 1014.9 |
| 20260504032736 | 60 | 333 | 8.0 | 14.0 | 0.00 | 0.00 | 0.00 | 83 | 1014.7 |
| 20260504031750 | 60 | 321 | 10.0 | 14.0 | 0.00 | 0.00 | 0.00 | 81 | 1014.5 |
| 20260504023404 | 60 | 285 | 9.0 | 16.0 | 0.00 | 0.00 | 0.00 | 78 | 1014.3 |
| 20260504022356 | 60 | 256 | 9.0 | 16.0 | 0.00 | 0.00 | 0.00 | 78 | 1014.4 |
| 20260504021407 | 60 | 281 | 9.0 | 16.0 | 0.00 | 0.00 | 0.00 | 77 | 1014.1 |
| 20260504020426 | 60 | 288 | 9.0 | 16.0 | 0.00 | 0.00 | 0.00 | 78 | 1014.2 |
| 20260504015423 | 60 | 290 | 9.0 | 16.0 | 0.00 | 0.00 | 0.00 | 78 | 1014.1 |
| 20260504014405 | 60 | 276 | 9.0 | 14.0 | 0.00 | 0.00 | 0.00 | 79 | 1014.1 |
| 20260504013347 | 61 | 217 | 9.0 | 14.0 | 0.00 | 0.00 | 0.00 | 79 | 1014.1 |
| 20260504003815 | 61 | 256 | 8.0 | 11.0 | 0.00 | 0.00 | 0.00 | 78 | 1013.6 |
| 20260504002806 | 61 | 245 | 8.0 | 11.0 | 0.00 | 0.00 | 0.00 | 78 | 1013.4 |
| 20260504001945 | 61 | 249 | 8.0 | 13.0 | 0.00 | 0.00 | 0.00 | 78 | 1013.5 |
| 20260504000937 | 62 | 18 | 8.0 | 11.0 | 0.00 | 0.00 | 0.00 | 78 | 1013.5 |
| 20260503234744 | 62 | 293 | 8.0 | 13.0 | 0.00 | 0.00 | 0.00 | 78 | 1013.3 |
| 20260503233726 | 61 | 252 | 8.0 | 12.0 | 0.00 | 0.00 | 0.00 | 79 | 1013.2 |
| 20260503232730 | 62 | 284 | 8.0 | 14.0 | 0.00 | 0.00 | 0.00 | 80 | 1013.3 |
| 20260503231713 | 62 | 248 | 8.0 | 14.0 | 0.00 | 0.00 | 0.00 | 79 | 1013.8 |
| 20260503230649 | 62 | 240 | 7.0 | 13.0 | 0.00 | 0.00 | 0.00 | 79 | 1013.7 |
| 20260503225619 | 62 | 284 | 8.0 | 13.0 | 0.00 | 0.00 | 0.00 | 78 | 1013.9 |
| 20260503223511 | 62 | 350 | 8.0 | 14.0 | 0.00 | 0.00 | 0.00 | 77 | 1014.1 |
| 20260503222501 | 63 | 278 | 8.0 | 14.0 | 0.00 | 0.00 | 0.00 | 77 | 1014.1 |
| 20260503221507 | 63 | 263 | 8.0 | 13.0 | 0.00 | 0.00 | 0.00 | 76 | 1014.2 |
| 20260503220433 | 64 | 289 | 8.0 | 13.0 | 0.00 | 0.00 | 0.00 | 72 | 1014.3 |
| 20260503215405 | 64 | 250 | 8.0 | 12.0 | 0.00 | 0.00 | 0.00 | 71 | 1014.4 |
| 20260503213316 | 65 | 249 | 7.0 | 12.0 | 0.00 | 0.00 | 0.00 | 69 | 1014.5 |
| 20260503212312 | 65 | 233 | 8.0 | 12.0 | 0.00 | 0.00 | 0.00 | 70 | 1014.6 |
| 20260503211321 | 65 | 243 | 8.0 | 11.0 | 0.00 | 0.00 | 0.00 | 68 | 1014.4 |
| 20260503210344 | 65 | 313 | 8.0 | 13.0 | 0.00 | 0.00 | 0.00 | 68 | 1014.5 |
| 20260503205403 | 65 | 261 | 8.0 | 13.0 | 0.00 | 0.00 | 0.00 | 68 | 1014.5 |
| 20260503204331 | 65 | 237 | 6.0 | 10.0 | 0.00 | 0.00 | 0.00 | 68 | 1014.7 |
| 20260503203319 | 66 | 240 | 6.0 | 10.0 | 0.00 | 0.00 | 0.00 | 67 | 1014.6 |
| 20260503202331 | 66 | 321 | 6.0 | 10.0 | 0.00 | 0.00 | 0.00 | 66 | 1014.6 |
| 20260503201340 | 66 | 236 | 6.0 | 10.0 | 0.00 | 0.00 | 0.00 | 67 | 1014.8 |
| 20260503200319 | 66 | 229 | 4.0 | 8.0 | 0.00 | 0.00 | 0.00 | 67 | 1014.7 |
| 20260503195304 | 66 | 225 | 4.0 | 8.0 | 0.00 | 0.00 | 0.00 | 65 | 1014.9 |
| 20260503194301 | 67 | 265 | 4.0 | 8.0 | 0.00 | 0.00 | 0.00 | 65 | 1014.9 |
| 20260503193233 | 67 | 187 | 5.0 | 8.0 | 0.00 | 0.00 | 0.00 | 67 | 1014.9 |
| 20260503192236 | 68 | 274 | 4.0 | 8.0 | 0.00 | 0.00 | 0.00 | 66 | 1014.9 |
| 20260503191202 | 67 | 359 | 5.0 | 7.0 | 0.00 | 0.00 | 0.00 | 67 | 1015.0 |
| 20260503190206 | 67 | 205 | 4.0 | 7.0 | 0.00 | 0.00 | 0.00 | 69 | 1015.1 |
| 20260503185143 | 67 | 246 | 4.0 | 6.0 | 0.00 | 0.00 | 0.00 | 70 | 1015.2 |
| 20260503184151 | 66 | 207 | 4.0 | 6.0 | 0.00 | 0.00 | 0.00 | 71 | 1015.2 |
| 20260503183210 | 66 | 352 | 3.0 | 6.0 | 0.00 | 0.00 | 0.00 | 73 | 1015.2 |
| 20260503181054 | 63 | 264 | 2.0 | 8.0 | 0.00 | 0.00 | 0.00 | 76 | 1015.0 |
| 20260503174925 | 62 | 295 | 3.0 | 6.0 | 0.00 | 0.00 | 0.00 | 77 | 1015.1 |
| 20260503173940 | 62 | 256 | 3.0 | 6.0 | 0.00 | 0.00 | 0.00 | 78 | 1015.2 |
| 20260503172934 | 61 | 242 | 3.0 | 6.0 | 0.00 | 0.00 | 0.00 | 79 | 1015.1 |
| 20260503171949 | 61 | 236 | 3.0 | 6.0 | 0.00 | 0.00 | 0.00 | 79 | 1015.1 |
| 20260503170946 | 62 | 284 | 3.0 | 6.0 | 0.00 | 0.00 | 0.00 | 79 | 1014.8 |
| 20260503150629 | 60 | 238 | 1.0 | 3.0 | 0.00 | 0.00 | 0.00 | 83 | 1014.4 |
| 20260503130445 | 59 | 257 | 2.0 | 6.0 | 0.00 | 0.00 | 0.00 | 85 | 1013.1 |
| 20260503110217 | 60 | 287 | 0.0 | 3.0 | 0.00 | 0.00 | 0.00 | 84 | 1013.2 |
| 20260503081632 | 60 | 205 | 1.0 | 6.0 | 0.00 | 0.00 | 0.00 | 84 | 1013.7 |
| 20260503080642 | 60 | 253 | 1.0 | 5.0 | 0.00 | 0.00 | 0.00 | 85 | 1013.8 |
| 20260503072633 | 60 | 221 | 1.0 | 5.0 | 0.00 | 0.00 | 0.00 | 86 | 1013.6 |
| 20260503071625 | 60 | 100 | 1.0 | 5.0 | 0.00 | 0.00 | 0.00 | 86 | 1013.4 |
| 20260503054326 | 59 | 300 | 2.0 | 7.0 | 0.00 | 0.00 | 0.00 | 89 | 1013.3 |
| 20260503053256 | 59 | 294 | 1.0 | 7.0 | 0.00 | 0.00 | 0.00 | 89 | 1013.4 |
| 20260503052320 | 59 | 281 | 3.0 | 8.0 | 0.00 | 0.00 | 0.00 | 89 | 1013.5 |
| 20260503050140 | 60 | 248 | 5.0 | 9.0 | 0.00 | 0.00 | 0.00 | 89 | 1013.5 |
| 20260503044005 | 60 | 252 | 4.0 | 7.0 | 0.00 | 0.00 | 0.00 | 90 | 1013.4 |